OK1ZXS-6 Weather Reports


time (UTC)temp
F
wind
direction
speed
knots
gust
knots
rain 1hr
in
rain 24hr
in
rain mn
in
humidity
%
barometer
mb
20260505123902 72 112 0.0 1.7 0.00 0.00 0.00 44
20260505122406 75 67 1.7 7.0 0.00 0.00 0.00 41
20260505120902 77 45 2.6 7.8 0.00 0.00 0.00 39
20260505115403 75 45 3.5 10.4 0.00 0.00 0.00 40
20260505113902 75 247 1.7 5.2 0.00 0.00 0.00 41
20260505112402 75 225 1.7 7.0 0.00 0.00 0.00 43
20260505110901 74 225 1.7 6.1 0.00 0.00 0.00 45
20260505100902 70 112 0.9 4.3 0.00 0.00 0.00 49
20260505095403 71 225 0.9 4.3 0.00 0.00 0.00 49
20260505093902 70 225 0.9 3.5 0.00 0.00 0.00 50
20260505092404 70 225 1.7 3.5 0.00 0.00 0.00 48
20260505090902 70 225 1.7 5.2 0.00 0.00 0.00 49
20260505085402 70 225 0.9 4.3 0.00 0.00 0.00 49
20260505083902 70 67 0.9 2.6 0.00 0.00 0.00 46
20260505082402 70 247 0.0 1.7 0.00 0.00 0.00 48
20260505080901 70 225 0.0 0.9 0.00 0.00 0.00 48
20260505075403 70 225 0.0 0.9 0.00 0.00 0.00 50
20260505073902 69 0 0.0 1.7 0.00 0.00 0.00 48
20260505072403 69 0 0.0 0.9 0.00 0.00 0.00 49
20260505070901 68 0 0.0 0.9 0.00 0.00 0.00 51
20260505065402 67 90 1.7 3.5 0.00 0.00 0.00 48
20260505063901 66 112 0.9 2.6 0.00 0.00 0.00 48
20260505062403 67 112 0.9 2.6 0.00 0.00 0.00 52
20260505060904 65 112 0.9 3.5 0.00 0.00 0.00 52
20260505055402 65 112 0.9 2.6 0.00 0.00 0.00 51
20260505053908 66 45 0.0 0.9 0.00 0.00 0.00 52
20260505052402 60 112 0.9 1.7 0.00 0.00 0.00 57
20260505050902 58 112 1.7 2.6 0.00 0.00 0.00 62
20260505040902 48 270 0.0 0.0 0.00 0.00 0.00 72
20260505035401 48 270 0.0 0.9 0.00 0.00 0.00 72
20260505033901 49 45 0.0 0.0 0.00 0.00 0.00 70
20260505032401 49 45 0.0 0.0 0.00 0.00 0.00 68
20260505030901 50 45 0.0 1.7 0.00 0.00 0.00 67
20260505025403 49 67 0.0 0.0 0.00 0.00 0.00 68
20260505023902 50 90 1.7 3.5 0.00 0.00 0.00 69
20260505020902 48 90 0.0 0.0 0.00 0.00 0.00 72
20260505015403 48 90 0.9 1.7 0.00 0.00 0.00 71
20260505013901 47 90 0.0 1.7 0.00 0.00 0.00 71
20260505012402 48 67 0.0 0.0 0.00 0.00 0.00 70
20260505010901 48 67 0.0 1.7 0.00 0.00 0.00 69
20260505005402 48 90 0.0 1.7 0.00 0.00 0.00 70
20260505003902 48 90 0.0 0.0 0.00 0.00 0.00 70
20260505002402 49 90 0.0 1.7 0.00 0.00 0.00 69
20260505000902 50 225 0.0 0.9 0.00 0.00 0.00 67
20260504235404 50 225 0.0 0.0 0.00 0.00 0.00 67
20260504233902 51 225 0.0 0.9 0.00 0.00 0.00 66
20260504232402 52 225 0.0 0.0 0.00 0.00 0.00 64
20260504230902 53 225 0.0 0.0 0.00 0.00 0.00 64
20260504225402 53 225 0.0 0.0 0.00 0.00 0.00 62
20260504223902 53 225 0.0 0.0 0.00 0.00 0.00 62
20260504222402 55 225 0.0 0.9 0.00 0.00 0.00 57
20260504220902 56 67 0.0 0.9 0.00 0.00 0.00 56
20260504215402 57 67 0.0 0.9 0.00 0.00 0.00 53
20260504213908 57 67 0.0 1.7 0.00 0.00 0.00 51
20260504212402 58 67 0.9 3.5 0.00 0.00 0.00 51
20260504210901 58 67 1.7 4.3 0.00 0.00 0.00 50
20260504205402 59 90 2.6 5.2 0.00 0.00 0.00 50
20260504203902 59 67 1.7 4.3 0.00 0.00 0.00 49
20260504202402 60 67 1.7 4.3 0.00 0.00 0.00 48
20260504200903 60 22 2.6 5.2 0.00 0.00 0.00 48
20260504195403 60 22 1.7 5.2 0.00 0.00 0.00 49
20260504193902 60 45 1.7 4.3 0.00 0.00 0.00 49
20260504192403 61 67 2.6 5.2 0.00 0.00 0.00 49
20260504190902 62 67 1.7 3.5 0.00 0.00 0.00 48
20260504185408 62 45 1.7 5.2 0.00 0.00 0.00 48
20260504183902 62 67 1.7 3.5 0.00 0.00 0.00 48
20260504182402 64 22 0.9 3.5 0.00 0.00 0.00 47
20260504180902 65 45 0.9 3.5 0.00 0.00 0.00 47
20260504175402 66 45 0.9 2.6 0.00 0.00 0.00 48
20260504173901 67 22 1.7 5.2 0.00 0.00 0.00 48
20260504172402 68 45 1.7 7.0 0.00 0.00 0.00 47
20260504170902 69 45 0.9 2.6 0.00 0.00 0.00 47
20260504150903 71 90 3.5 7.0 0.00 0.00 0.00 40
20260504140902 76 202 0.9 1.7 0.00 0.00 0.00 40